This demonstration page uses our WeatherBlox Daily Observations layout. Learn more.

Left ArrowRight Arrow

39.29038, -76.61219

Hourly Observations for January 15, 2015

Temp ( °F °C ) Dew Point ( °F °C ) Humidity (%) Winds ( mph kmh ) Pressure ( in mb ) Visibility ( mi km ) Precip ( " mm )
12:54 am 00:54 undefined 31 -0.6 21 -6.1 67 67 undefined N/A 30.21 1023 N/A 0.00 0.00
1:54 am 01:54 undefined 31 -0.6 21 -6.1 67 67 undefined N/A 30.21 1023 N/A 0.00 0.00
2:54 am 02:54 undefined 31 -0.6 21 -6.1 67 67 undefined N/A 30.21 1023 N/A 0.00 0.00
3:54 am 03:54 undefined 30 -1.1 21 -6.1 69 69 undefined N/A 30.19 1022 N/A 0.00 0.00
4:54 am 04:54 undefined 30 -1.1 21 -6.1 69 69 undefined N/A 30.16 1022 N/A 0.00 0.00
5:54 am 05:54 undefined 29 -1.7 21 -6.1 72 72 undefined N/A 30.19 1023 N/A 0.00 0.00
6:54 am 06:54 undefined 29 -1.7 21 -6.1 72 72 undefined N/A 30.21 1023 N/A 0.00 0.00
7:54 am 07:54 undefined 31 -0.6 19 -7.2 61 61 undefined N/A 30.19 1023 N/A 0.00 0.00
8:54 am 08:54 undefined 31 -0.6 17 -8.3 56 56 undefined N/A 30.19 1022 N/A 0.00 0.00
9:54 am 09:54 undefined 32 0 16 -8.9 52 52 undefined N/A 30.19 1022 N/A 0.00 0.00
10:54 am 10:54 undefined 34 1.1 17 -8.3 50 50 undefined N/A 30.20 1023 N/A 0.00 0.00
11:54 am 11:54 undefined 36 2.2 18 -7.8 48 48 undefined N/A 30.15 1021 N/A 0.00 0.00
12:54 pm 12:54 undefined 37 2.8 17 -8.3 44 44 undefined N/A 30.12 1020 N/A 0.00 0.00
1:54 pm 13:54 undefined 39 3.9 16 -8.9 39 39 undefined N/A 30.10 1019 N/A 0.00 0.00
2:54 pm 14:54 undefined 39 3.9 14 -10 36 36 undefined N/A 30.06 1018 N/A 0.00 0.00
3:54 pm 15:54 undefined 39 3.9 17 -8.3 41 41 undefined N/A 30.05 1018 N/A 0.00 0.00
4:54 pm 16:54 undefined 39 3.9 18 -7.8 43 43 undefined N/A 30.05 1018 N/A 0.00 0.00
5:54 pm 17:54 undefined 38 3.3 19 -7.2 46 46 undefined N/A 30.04 1017 N/A 0.00 0.00
6:54 pm 18:54 undefined 37 2.8 21 -6.1 52 52 undefined N/A 30.03 1017 N/A 0.00 0.00
7:54 pm 19:54 undefined 35 1.7 23 -5 61 61 undefined N/A 30.03 1017 N/A 0.00 0.00
8:54 pm 20:54 undefined 33 0.6 24 -4.4 70 70 undefined N/A 30.02 1017 N/A 0.00 0.00
9:54 pm 21:54 undefined 32 0 24 -4.4 73 73 undefined N/A 30.01 1016 N/A 0.00 0.00
10:54 pm 22:54 undefined 32 0 25 -3.9 75 75 undefined N/A 30.01 1016 N/A 0.00 0.00
11:54 pm 23:54 undefined 33 0.6 26 -3.3 75 75 undefined N/A 30.00 1016 N/A 0.00 0.00

Powered by AerisWeather